When you browse on this site, cookies collect data to enhance your experience and personalize the content and advertising you see.
Visit our Privacy Policy to learn more. By continuing to use the site, you agree to this use of cookies and data.
  • en France
  • Liste des pays
  • À 7 jours
  • Température de l'eau
  • Carte satellitaire
  • Carte météo
  • Widgets météo
  • user-avatar
    Se connecter

    Météo par heure à Ljubljana

    Ce jour, 18 Juillet, Jeudi

    Heure Température Précipitation Vent Pression Humidité
    00:00 +13°C° 0.6 mm 1 m/s 666 mmHg 94%
    01:00 +13°C° 0 mm 1 m/s 666 mmHg 95%
    02:00 +12°C° 0.1 mm 1 m/s 665 mmHg 95%
    03:00 +12°C° 0.1 mm 1 m/s 665 mmHg 95%
    04:00 +11°C° 0.1 mm 1 m/s 665 mmHg 94%
    05:00 +12°C° 0 mm 1 m/s 665 mmHg 93%
    06:00 +12°C° 0 mm 0 m/s 665 mmHg 92%
    07:00 +15°C° 0 mm 1 m/s 666 mmHg 88%
    08:00 +18°C° 0 mm 1 m/s 667 mmHg 76%
    09:00 +21°C° 0 mm 1 m/s 668 mmHg 64%
    10:00 +23°C° 0 mm 1 m/s 668 mmHg 51%
    11:00 +23°C° 0.2 mm 1 m/s 668 mmHg 49%
    12:00 +24°C° 0.2 mm 1 m/s 668 mmHg 47%
    13:00 +24°C° 0.2 mm 1 m/s 668 mmHg 46%
    14:00 +23°C° 0.4 mm 1 m/s 668 mmHg 50%
    15:00 +22°C° 0.4 mm 1 m/s 668 mmHg 55%
    16:00 +22°C° 0.4 mm 1 m/s 668 mmHg 59%
    17:00 +20°C° 0.7 mm 1 m/s 668 mmHg 69%
    18:00 +18°C° 0.7 mm 1 m/s 667 mmHg 79%
    19:00 +14°C° 0.7 mm 0 m/s 667 mmHg 90%
    20:00 +13°C° 0.2 mm 0 m/s 667 mmHg 90%
    21:00 +13°C° 0.2 mm 1 m/s 667 mmHg 91%
    22:00 +12°C° 0.2 mm 1 m/s 667 mmHg 92%
    23:00 +12°C° 0.1 mm 1 m/s 667 mmHg 92%

    Demain, 19 Juillet, Vendredi

    Heure Température Précipitation Vent Pression Humidité
    00:00 +11°C° 0.1 mm 1 m/s 667 mmHg 92%
    01:00 +11°C° 0.1 mm 1 m/s 667 mmHg 92%
    02:00 +11°C° 0 mm 1 m/s 667 mmHg 91%
    03:00 +10°C° 0 mm 1 m/s 667 mmHg 91%
    04:00 +10°C° 0 mm 1 m/s 667 mmHg 91%
    05:00 +11°C° 0 mm 1 m/s 668 mmHg 90%
    06:00 +12°C° 0 mm 0 m/s 668 mmHg 88%
    07:00 +13°C° 0 mm 0 m/s 669 mmHg 87%
    08:00 +15°C° 0.2 mm 0 m/s 669 mmHg 78%
    09:00 +17°C° 0.2 mm 0 m/s 670 mmHg 70%
    10:00 +22°C° 0.2 mm 1 m/s 670 mmHg 62%
    11:00 +22°C° 0.6 mm 1 m/s 670 mmHg 60%
    12:00 +23°C° 0.6 mm 1 m/s 670 mmHg 58%
    13:00 +24°C° 0.6 mm 1 m/s 671 mmHg 56%
    14:00 +24°C° 0.4 mm 1 m/s 670 mmHg 57%
    15:00 +23°C° 0.4 mm 1 m/s 670 mmHg 57%
    16:00 +23°C° 0.4 mm 1 m/s 670 mmHg 58%
    17:00 +22°C° 0.2 mm 1 m/s 670 mmHg 65%
    18:00 +20°C° 0.2 mm 1 m/s 670 mmHg 72%
    19:00 +19°C° 0.2 mm 1 m/s 669 mmHg 79%
    20:00 +16°C° 0 mm 1 m/s 669 mmHg 79%
    21:00 +15°C° 0 mm 1 m/s 669 mmHg 80%
    22:00 +14°C° 0 mm 1 m/s 669 mmHg 81%
    23:00 +14°C° 0 mm 1 m/s 669 mmHg 81%

    Après-demain, 20 Juillet, Samedi

    Heure Température Précipitation Vent Pression Humidité
    00:00 +13°C° 0 mm 1 m/s 669 mmHg 81%
    01:00 +13°C° 0 mm 1 m/s 669 mmHg 81%
    02:00 +12°C° 0 mm 1 m/s 669 mmHg 82%
    03:00 +12°C° 0 mm 1 m/s 669 mmHg 82%
    04:00 +11°C° 0 mm 0 m/s 669 mmHg 83%
    05:00 +12°C° 0 mm 0 m/s 669 mmHg 80%
    06:00 +14°C° 0 mm 0 m/s 670 mmHg 76%
    07:00 +16°C° 0 mm 0 m/s 670 mmHg 73%
    08:00 +18°C° 0 mm 0 m/s 671 mmHg 64%
    09:00 +20°C° 0 mm 0 m/s 672 mmHg 56%
    10:00 +24°C° 0 mm 1 m/s 672 mmHg 47%
    11:00 +25°C° 0 mm 1 m/s 672 mmHg 45%
    12:00 +26°C° 0 mm 1 m/s 672 mmHg 43%
    13:00 +27°C° 0 mm 2 m/s 672 mmHg 41%
    14:00 +26°C° 0 mm 2 m/s 672 mmHg 42%
    15:00 +26°C° 0 mm 2 m/s 672 mmHg 44%
    16:00 +26°C° 0 mm 2 m/s 672 mmHg 46%
    17:00 +24°C° 0 mm 2 m/s 672 mmHg 57%
    18:00 +21°C° 0 mm 2 m/s 671 mmHg 68%
    19:00 +20°C° 0 mm 1 m/s 671 mmHg 79%
    20:00 +19°C° 0 mm 1 m/s 671 mmHg 82%
    21:00 +18°C° 0 mm 1 m/s 671 mmHg 84%
    22:00 +16°C° 0 mm 1 m/s 671 mmHg 87%
    23:00 +15°C° 0 mm 1 m/s 671 mmHg 86%

    21 Juillet, Dimanche

    Heure Température Précipitation Vent Pression Humidité
    00:00 +15°C° 0 mm 1 m/s 671 mmHg 85%
    01:00 +15°C° 0 mm 1 m/s 671 mmHg 84%
    02:00 +15°C° 0 mm 1 m/s 671 mmHg 84%
    03:00 +14°C° 0 mm 1 m/s 671 mmHg 84%
    04:00 +14°C° 0 mm 1 m/s 671 mmHg 84%
    05:00 +14°C° 0 mm 0 m/s 671 mmHg 80%
    06:00 +16°C° 0 mm 0 m/s 672 mmHg 77%
    07:00 +18°C° 0 mm 0 m/s 672 mmHg 73%
    08:00 +20°C° 0 mm 0 m/s 673 mmHg 66%
    09:00 +22°C° 0 mm 0 m/s 674 mmHg 59%
    10:00 +27°C° 0 mm 1 m/s 675 mmHg 53%
    11:00 +28°C° 0 mm 1 m/s 675 mmHg 49%
    12:00 +29°C° 0 mm 1 m/s 675 mmHg 45%
    13:00 +30°C° 0 mm 1 m/s 675 mmHg 41%
    14:00 +29°C° 0 mm 1 m/s 675 mmHg 42%
    15:00 +29°C° 0 mm 1 m/s 675 mmHg 43%
    16:00 +28°C° 0 mm 1 m/s 675 mmHg 44%
    17:00 +26°C° 0.7 mm 1 m/s 674 mmHg 58%
    18:00 +23°C° 0.7 mm 1 m/s 674 mmHg 72%
    19:00 +21°C° 0.7 mm 1 m/s 674 mmHg 85%
    20:00 +20°C° 1.4 mm 1 m/s 674 mmHg 89%
    21:00 +19°C° 1.4 mm 1 m/s 674 mmHg 92%
    22:00 +18°C° 1.4 mm 1 m/s 674 mmHg 95%
    23:00 +16°C° 0.1 mm 1 m/s 674 mmHg 95%

    22 Juillet, Lundi

    Heure Température Précipitation Vent Pression Humidité
    00:00 +16°C° 0.1 mm 1 m/s 673 mmHg 95%
    01:00 +15°C° 0.1 mm 1 m/s 673 mmHg 95%
    02:00 +15°C° 0 mm 1 m/s 673 mmHg 95%
    03:00 +15°C° 0 mm 1 m/s 673 mmHg 94%
    04:00 +15°C° 0 mm 1 m/s 673 mmHg 94%
    05:00 +15°C° 0 mm 0 m/s 673 mmHg 93%
    06:00 +16°C° 0 mm 0 m/s 674 mmHg 91%
    07:00 +17°C° 0 mm 0 m/s 674 mmHg 90%
    08:00 +19°C° 0.2 mm 0 m/s 675 mmHg 81%
    09:00 +23°C° 0.2 mm 1 m/s 675 mmHg 73%
    10:00 +25°C° 0.2 mm 1 m/s 676 mmHg 65%
    11:00 +26°C° 0.2 mm 1 m/s 676 mmHg 60%
    12:00 +27°C° 0.2 mm 1 m/s 676 mmHg 55%
    13:00 +28°C° 0.2 mm 1 m/s 676 mmHg 50%
    14:00 +28°C° 0.1 mm 1 m/s 676 mmHg 50%
    15:00 +28°C° 0.1 mm 1 m/s 676 mmHg 49%
    16:00 +28°C° 0.1 mm 1 m/s 675 mmHg 48%
    17:00 +26°C° 0.2 mm 1 m/s 675 mmHg 59%
    18:00 +24°C° 0.2 mm 1 m/s 674 mmHg 69%
    19:00 +22°C° 0.2 mm 1 m/s 674 mmHg 80%
    20:00 +21°C° 0 mm 1 m/s 674 mmHg 81%
    21:00 +20°C° 0 mm 1 m/s 674 mmHg 82%
    22:00 +19°C° 0 mm 1 m/s 674 mmHg 83%
    23:00 +18°C° 0 mm 1 m/s 674 mmHg 84%

    23 Juillet, Mardi

    Heure Température Précipitation Vent Pression Humidité
    00:00 +16°C° 0 mm 0 m/s 673 mmHg 85%
    01:00 +15°C° 0 mm 0 m/s 673 mmHg 87%
    02:00 +15°C° 0 mm 0 m/s 673 mmHg 88%
    03:00 +14°C° 0 mm 0 m/s 673 mmHg 90%
    04:00 +14°C° 0 mm 0 m/s 672 mmHg 92%
    05:00 +15°C° 0 mm 0 m/s 673 mmHg 89%
    06:00 +16°C° 0 mm 0 m/s 673 mmHg 86%
    07:00 +18°C° 0 mm 0 m/s 673 mmHg 83%
    08:00 +21°C° 0 mm 1 m/s 674 mmHg 75%
    09:00 +23°C° 0 mm 1 m/s 674 mmHg 67%
    10:00 +25°C° 0 mm 1 m/s 674 mmHg 60%
    11:00 +26°C° 0 mm 1 m/s 674 mmHg 56%
    12:00 +27°C° 0 mm 1 m/s 674 mmHg 52%
    13:00 +28°C° 0 mm 1 m/s 674 mmHg 49%
    14:00 +28°C° 0 mm 1 m/s 674 mmHg 48%
    15:00 +27°C° 0 mm 1 m/s 674 mmHg 48%
    16:00 +27°C° 0 mm 1 m/s 673 mmHg 47%
    17:00 +26°C° 0 mm 1 m/s 673 mmHg 57%
    18:00 +24°C° 0 mm 1 m/s 672 mmHg 67%
    19:00 +22°C° 0 mm 1 m/s 672 mmHg 76%
    20:00 +21°C° 0 mm 1 m/s 672 mmHg 79%
    21:00 +19°C° 0 mm 1 m/s 672 mmHg 82%
    22:00 +18°C° 0 mm 1 m/s 671 mmHg 85%
    23:00 +16°C° 0 mm 1 m/s 671 mmHg 85%
    Voir plus